Location: Unspecified
(49.2170°N, 0.0000°E)
Time: 13:13:41
(UTC+00:00)

Vanguard 3 - Pass Details

Date: 29 January 2021
Orbit: 508 x 3261 km, 33.3° (Epoch: 28 February)

Event Time Altitude Azimuth Distance (km) Brightness Sun altitude
Rises 04:33:10 0° 243° (WSW) 3,414 - -29.7°
Reaches altitude 10° 04:35:43 10° 229° (SW) 2,757 - -29.3°
Exits shadow 04:39:27 24° 195° (SSW) 2,325 9.2 -28.7°
Maximum altitude 04:41:09 25° 176° (S) 2,413 9.5 -28.4°
Drops below altitude 10° 04:49:21 10° 127° (SE) 4,314 11.4 -27.0°
Sets 04:54:34 0° 117° (ESE) 5,840 12.4 -26.2°
